sat.trackr.live / text

‹ back to catalog

STARLINK-32665

NORAD 62203 · 2024-229M

PAYLOAD ACTIVE UNKNOWN

§ Identity

Operator
Country
US
Launch date
2024-12-04
Launch site
AFETR
Launch vehicle
Mass (kg)
RCS (m²)

Purposes: comms

External: N2YO · Heavens-Above · Gunter

§ Orbital elements

Epoch: 2026-05-24T21:07:59.685024Z

Period
94.26 min
Inclination
43.0017°
Eccentricity
0.0002387
Mean motion
15.27609636 rev/d
Perigee alt
481.3 km
Apogee alt
484.6 km
Semi-major
6,861.1 km
B*
7.1995e-4
RAAN
200.4419°
Arg perigee
264.5431°
Mean anomaly
95.5148°
Rev number
8,221

§ Raw data

STARLINK-326651 62203U 24229M   26144.88055191  .00019621  00000+0  71995-3 0  99982 62203  43.0017 200.4419 0002387 264.5431  95.5148 15.27609636 82215

JSON: /api/v1/satellites/62203 · /tle

For live sub-satellite position, see the globe view (requires WebGL).

§ Visibility from observer

Set your observer location to see the next 7 days of passes ≥ 10°. The values pass through the URL so the page stays shareable.

No JS? Fill the form by hand. The geolocation button needs JavaScript.